Location: Flynn Junction
(40.1314°N, 99.5162°W)
Time: 20:21:03
(UTC+00:00)

Cosmos 2292 Rocket - Pass Details

Date: 29 October 2020
Orbit: 381 x 1451 km, 83.0° (Epoch: 30 November)

Event Time Altitude Azimuth Distance (km) Brightness Sun altitude
Rises 12:03:12 0° 175° (S) 2,270 6.6 -12.3°
Reaches altitude 10° 12:05:04 10° 170° (S) 1,462 5.7 -11.9°
Maximum altitude 12:08:05 52° 92° (E) 563 3.8 -11.4°
Drops below altitude 10° 12:11:43 10° 16° (NNE) 1,764 6.0 -10.7°
Sets 12:14:10 0° 12° (NNE) 2,812 7.0 -10.2°
